contact:dominique.lefevre@mio.osupytheas.fr, maurice.libes@osupytheas.fr, didier.mallarino@osupytheas.fr
Project:EMSO http://www.emso-fr.org/EMSO-France
Depth: 2436.0 m
Title:EMSO Ligure Ouest : Data MII capteur MICROCAT
DateTime_Computer,Latitude,Longitude,Temperature,Conductivity,Pressure,DateTime_Instrument
DateTime_Computer,Latitude,Longitude,degC,S m-1,dbar,DateTime_Instrument
2021-06-25T00:00:18Z,42.805,6.029,13.2986,4.60005,2470.413,2021-6-25T02:01:33Z
2021-06-25T00:03:21Z,42.805,6.029,13.2990,4.60008,2470.39,2021-6-25T02:04:36Z
2021-06-25T00:06:25Z,42.805,6.029,13.2986,4.60001,2470.423,2021-6-25T02:07:39Z
2021-06-25T00:09:28Z,42.805,6.029,13.2990,4.59999,2470.437,2021-6-25T02:10:42Z
2021-06-25T00:12:31Z,42.805,6.029,13.2991,4.60001,2470.413,2021-6-25T02:13:45Z
2021-06-25T00:15:34Z,42.805,6.029,13.2991,4.60002,2470.39,2021-6-25T02:16:48Z
2021-06-25T00:18:37Z,42.805,6.029,13.2989,4.60004,2470.39,2021-6-25T02:19:51Z
2021-06-25T00:21:40Z,42.805,6.029,13.2990,4.60007,2470.437,2021-6-25T02:22:54Z
2021-06-25T00:24:43Z,42.805,6.029,13.2989,4.60006,2470.404,2021-6-25T02:25:58Z
2021-06-25T00:27:46Z,42.805,6.029,13.2987,4.60001,2470.399,2021-6-25T02:29:01Z
2021-06-25T00:30:50Z,42.805,6.029,13.2986,4.60007,2470.404,2021-6-25T02:32:04Z
2021-06-25T00:33:53Z,42.805,6.029,13.2987,4.60009,2470.404,2021-6-25T02:35:07Z
2021-06-25T00:36:56Z,42.805,6.029,13.2991,4.60003,2470.39,2021-6-25T02:38:10Z
2021-06-25T00:39:59Z,42.805,6.029,13.2992,4.60002,2470.366,2021-6-25T02:41:13Z
2021-06-25T00:43:02Z,42.805,6.029,13.2990,4.60008,2470.39,2021-6-25T02:44:16Z
2021-06-25T00:46:05Z,42.805,6.029,13.2990,4.60008,2470.404,2021-6-25T02:47:19Z
2021-06-25T00:49:08Z,42.805,6.029,13.2989,4.60010,2470.343,2021-6-25T02:50:23Z
2021-06-25T00:52:11Z,42.805,6.029,13.2988,4.60007,2470.404,2021-6-25T02:53:26Z
2021-06-25T00:55:15Z,42.805,6.029,13.2990,4.60007,2470.366,2021-6-25T02:56:29Z
2021-06-25T00:58:18Z,42.805,6.029,13.2989,4.60010,2470.366,2021-6-25T02:59:32Z
2021-06-25T01:01:21Z,42.805,6.029,13.2985,4.60011,2470.366,2021-6-25T03:02:35Z
2021-06-25T01:04:24Z,42.805,6.029,13.2985,4.60007,2470.39,2021-6-25T03:05:38Z
2021-06-25T01:07:27Z,42.805,6.029,13.2985,4.60011,2470.32,2021-6-25T03:08:41Z
2021-06-25T01:10:30Z,42.805,6.029,13.2988,4.60016,2470.39,2021-6-25T03:11:44Z
2021-06-25T01:13:33Z,42.805,6.029,13.2986,4.60008,2470.343,2021-6-25T03:14:48Z
2021-06-25T01:16:36Z,42.805,6.029,13.2990,4.60006,2470.366,2021-6-25T03:17:51Z
2021-06-25T01:19:40Z,42.805,6.029,13.2986,4.60021,2470.343,2021-6-25T03:20:54Z
2021-06-25T01:22:43Z,42.805,6.029,13.2990,4.60011,2470.39,2021-6-25T03:23:57Z
2021-06-25T01:25:46Z,42.805,6.029,13.2988,4.60011,2470.38,2021-6-25T03:27:00Z
2021-06-25T01:28:49Z,42.805,6.029,13.3003,4.60013,2470.366,2021-6-25T03:30:03Z
2021-06-25T01:31:52Z,42.805,6.029,13.2990,4.60007,2470.357,2021-6-25T03:33:06Z
2021-06-25T01:34:55Z,42.805,6.029,13.2986,4.60009,2470.357,2021-6-25T03:36:09Z
2021-06-25T01:37:58Z,42.805,6.029,13.2990,4.60011,2470.366,2021-6-25T03:39:13Z
2021-06-25T01:41:01Z,42.805,6.029,13.2988,4.60006,2470.343,2021-6-25T03:42:16Z
2021-06-25T01:44:05Z,42.805,6.029,13.2986,4.60005,2470.343,2021-6-25T03:45:19Z
2021-06-25T01:47:08Z,42.805,6.029,13.2988,4.60011,2470.38,2021-6-25T03:48:22Z
2021-06-25T01:50:11Z,42.805,6.029,13.2990,4.59999,2470.366,2021-6-25T03:51:25Z
2021-06-25T01:53:14Z,42.805,6.029,13.2990,4.60002,2470.366,2021-6-25T03:54:28Z
2021-06-25T01:56:17Z,42.805,6.029,13.2989,4.60001,2470.357,2021-6-25T03:57:31Z
2021-06-25T01:59:20Z,42.805,6.029,13.2985,4.60006,2470.357,2021-6-25T04:00:34Z
2021-06-25T02:02:23Z,42.805,6.029,13.2985,4.60007,2470.357,2021-6-25T04:03:38Z
2021-06-25T02:05:26Z,42.805,6.029,13.2986,4.60009,2470.366,2021-6-25T04:06:41Z
2021-06-25T02:08:30Z,42.805,6.029,13.2988,4.60009,2470.38,2021-6-25T04:09:44Z
2021-06-25T02:11:33Z,42.805,6.029,13.2986,4.60003,2470.343,2021-6-25T04:12:47Z
2021-06-25T02:14:36Z,42.805,6.029,13.2990,4.60011,2470.366,2021-6-25T04:15:50Z
2021-06-25T02:17:39Z,42.805,6.029,13.2988,4.60000,2470.334,2021-6-25T04:18:53Z
2021-06-25T02:20:42Z,42.805,6.029,13.2991,4.60011,2470.38,2021-6-25T04:21:56Z
2021-06-25T02:23:45Z,42.805,6.029,13.2985,4.60006,2470.357,2021-6-25T04:24:59Z
2021-06-25T02:26:48Z,42.805,6.029,13.2989,4.60005,2470.357,2021-6-25T04:28:03Z
2021-06-25T02:29:51Z,42.805,6.029,13.2990,4.60002,2470.334,2021-6-25T04:31:06Z
2021-06-25T02:32:55Z,42.805,6.029,13.2986,4.60001,2470.32,2021-6-25T04:34:09Z
2021-06-25T02:35:58Z,42.805,6.029,13.2987,4.59999,2470.343,2021-6-25T04:37:12Z
2021-06-25T02:39:01Z,42.805,6.029,13.2985,4.60001,2470.343,2021-6-25T04:40:15Z
2021-06-25T02:42:04Z,42.805,6.029,13.2989,4.60009,2470.357,2021-6-25T04:43:18Z
2021-06-25T02:45:07Z,42.805,6.029,13.2989,4.60001,2470.38,2021-6-25T04:46:21Z
2021-06-25T02:48:10Z,42.805,6.029,13.2988,4.60001,2470.357,2021-6-25T04:49:24Z
2021-06-25T02:51:13Z,42.805,6.029,13.2988,4.60005,2470.343,2021-6-25T04:52:28Z
2021-06-25T02:54:16Z,42.805,6.029,13.2991,4.60001,2470.357,2021-6-25T04:55:31Z
2021-06-25T02:57:19Z,42.805,6.029,13.2984,4.60008,2470.334,2021-6-25T04:58:34Z
2021-06-25T03:00:23Z,42.805,6.029,13.2989,4.59999,2470.334,2021-6-25T05:01:37Z
2021-06-25T03:03:26Z,42.805,6.029,13.2990,4.59998,2470.343,2021-6-25T05:04:40Z
2021-06-25T03:06:29Z,42.805,6.029,13.2991,4.59999,2470.343,2021-6-25T05:07:43Z
2021-06-25T03:09:32Z,42.805,6.029,13.2986,4.59999,2470.366,2021-6-25T05:10:46Z
2021-06-25T03:12:35Z,42.805,6.029,13.2992,4.60002,2470.357,2021-6-25T05:13:49Z
2021-06-25T03:15:38Z,42.805,6.029,13.2987,4.59999,2470.357,2021-6-25T05:16:53Z
2021-06-25T03:18:41Z,42.805,6.029,13.2986,4.59999,2470.366,2021-6-25T05:19:56Z
2021-06-25T03:21:44Z,42.805,6.029,13.2986,4.59999,2470.32,2021-6-25T05:22:59Z
2021-06-25T03:24:48Z,42.805,6.029,13.2986,4.60001,2470.366,2021-6-25T05:26:02Z
2021-06-25T03:27:51Z,42.805,6.029,13.2990,4.60001,2470.366,2021-6-25T05:29:05Z
2021-06-25T03:30:54Z,42.805,6.029,13.2990,4.60002,2470.38,2021-6-25T05:32:08Z
2021-06-25T03:33:57Z,42.805,6.029,13.2986,4.60003,2470.366,2021-6-25T05:35:11Z
2021-06-25T03:37:00Z,42.805,6.029,13.2991,4.60002,2470.343,2021-6-25T05:38:14Z
2021-06-25T03:40:03Z,42.805,6.029,13.2989,4.60011,2470.343,2021-6-25T05:41:18Z
2021-06-25T03:43:06Z,42.805,6.029,13.2988,4.60001,2470.343,2021-6-25T05:44:21Z
2021-06-25T03:46:09Z,42.805,6.029,13.2990,4.59999,2470.366,2021-6-25T05:47:24Z
2021-06-25T03:49:13Z,42.805,6.029,13.2991,4.60000,2470.38,2021-6-25T05:50:27Z
2021-06-25T03:52:16Z,42.805,6.029,13.2989,4.60003,2470.404,2021-6-25T05:53:30Z
2021-06-25T03:55:19Z,42.805,6.029,13.2990,4.60006,2470.39,2021-6-25T05:56:33Z
2021-06-25T03:58:22Z,42.805,6.029,13.2989,4.60003,2470.343,2021-6-25T05:59:36Z
2021-06-25T04:01:25Z,42.805,6.029,13.2991,4.60013,2470.427,2021-6-25T06:02:39Z
2021-06-25T04:04:28Z,42.805,6.029,13.2988,4.59999,2470.39,2021-6-25T06:05:43Z
2021-06-25T04:07:31Z,42.805,6.029,13.2991,4.60003,2470.39,2021-6-25T06:08:46Z
2021-06-25T04:10:34Z,42.805,6.029,13.2986,4.59998,2470.366,2021-6-25T06:11:49Z
2021-06-25T04:13:38Z,42.805,6.029,13.2990,4.60000,2470.404,2021-6-25T06:14:52Z
2021-06-25T04:16:41Z,42.805,6.029,13.2990,4.60001,2470.39,2021-6-25T06:17:55Z
2021-06-25T04:19:44Z,42.805,6.029,13.2993,4.60000,2470.427,2021-6-25T06:20:58Z
2021-06-25T04:22:47Z,42.805,6.029,13.2989,4.59999,2470.38,2021-6-25T06:24:01Z
2021-06-25T04:25:50Z,42.805,6.029,13.2986,4.60001,2470.366,2021-6-25T06:27:04Z
2021-06-25T04:28:53Z,42.805,6.029,13.2984,4.59998,2470.404,2021-6-25T06:30:07Z
2021-06-25T04:31:56Z,42.805,6.029,13.2988,4.60001,2470.39,2021-6-25T06:33:11Z
2021-06-25T04:34:59Z,42.805,6.029,13.2989,4.60001,2470.404,2021-6-25T06:36:14Z
2021-06-25T04:38:03Z,42.805,6.029,13.2990,4.60001,2470.413,2021-6-25T06:39:17Z
2021-06-25T04:41:06Z,42.805,6.029,13.2988,4.60004,2470.413,2021-6-25T06:42:20Z
2021-06-25T04:44:09Z,42.805,6.029,13.2992,4.60003,2470.413,2021-6-25T06:45:23Z
2021-06-25T04:47:12Z,42.805,6.029,13.2990,4.60008,2470.413,2021-6-25T06:48:26Z
2021-06-25T04:50:15Z,42.805,6.029,13.2984,4.60003,2470.437,2021-6-25T06:51:29Z
2021-06-25T04:53:18Z,42.805,6.029,13.2991,4.60005,2470.413,2021-6-25T06:54:32Z
2021-06-25T04:56:21Z,42.805,6.029,13.2987,4.60002,2470.437,2021-6-25T06:57:36Z
2021-06-25T04:59:24Z,42.805,6.029,13.2990,4.60006,2470.437,2021-6-25T07:00:39Z
2021-06-25T05:02:28Z,42.805,6.029,13.2987,4.60021,2470.45,2021-6-25T07:03:42Z
2021-06-25T05:05:31Z,42.805,6.029,13.2994,4.60005,2470.413,2021-6-25T07:06:45Z
2021-06-25T05:08:34Z,42.805,6.029,13.2990,4.60001,2470.39,2021-6-25T07:09:48Z
2021-06-25T05:11:37Z,42.805,6.029,13.2986,4.60002,2470.474,2021-6-25T07:12:51Z
2021-06-25T05:14:40Z,42.805,6.029,13.2990,4.60002,2470.45,2021-6-25T07:15:54Z
2021-06-25T05:17:43Z,42.805,6.029,13.2990,4.60001,2470.46,2021-6-25T07:18:57Z
2021-06-25T05:20:46Z,42.805,6.029,13.2987,4.60002,2470.427,2021-6-25T07:22:01Z
2021-06-25T05:23:49Z,42.805,6.029,13.2993,4.60002,2470.437,2021-6-25T07:25:04Z
2021-06-25T05:26:52Z,42.805,6.029,13.2989,4.60006,2470.427,2021-6-25T07:28:07Z
2021-06-25T05:29:56Z,42.805,6.029,13.2988,4.60003,2470.46,2021-6-25T07:31:10Z
2021-06-25T05:32:59Z,42.805,6.029,13.2989,4.60002,2470.46,2021-6-25T07:34:13Z
2021-06-25T05:36:02Z,42.805,6.029,13.2991,4.60002,2470.45,2021-6-25T07:37:16Z
2021-06-25T05:39:05Z,42.805,6.029,13.2990,4.60002,2470.437,2021-6-25T07:40:19Z
2021-06-25T05:42:08Z,42.805,6.029,13.2986,4.60002,2470.46,2021-6-25T07:43:22Z
2021-06-25T05:45:11Z,42.805,6.029,13.2986,4.60001,2470.45,2021-6-25T07:46:26Z
2021-06-25T05:48:14Z,42.805,6.029,13.2993,4.60002,2470.483,2021-6-25T07:49:29Z
2021-06-25T05:51:17Z,42.805,6.029,13.2988,4.60003,2470.437,2021-6-25T07:52:32Z
2021-06-25T05:54:21Z,42.805,6.029,13.2989,4.60006,2470.46,2021-6-25T07:55:35Z
2021-06-25T05:57:24Z,42.805,6.029,13.2991,4.60001,2470.497,2021-6-25T07:58:38Z
2021-06-25T06:00:27Z,42.805,6.029,13.2986,4.59999,2470.474,2021-6-25T08:01:41Z
2021-06-25T06:03:30Z,42.805,6.029,13.2992,4.60000,2470.497,2021-6-25T08:04:44Z
2021-06-25T06:06:33Z,42.805,6.029,13.2988,4.60006,2470.46,2021-6-25T08:07:47Z
2021-06-25T06:09:36Z,42.805,6.029,13.2991,4.60007,2470.46,2021-6-25T08:10:50Z
2021-06-25T06:12:39Z,42.805,6.029,13.2985,4.60003,2470.52,2021-6-25T08:13:54Z
2021-06-25T06:15:42Z,42.805,6.029,13.2991,4.60005,2470.46,2021-6-25T08:16:57Z
2021-06-25T06:18:46Z,42.805,6.029,13.2992,4.60003,2470.47,2021-6-25T08:20:00Z
2021-06-25T06:21:49Z,42.805,6.029,13.2988,4.60000,2470.474,2021-6-25T08:23:03Z
2021-06-25T06:24:52Z,42.805,6.029,13.2990,4.60001,2470.483,2021-6-25T08:26:06Z
2021-06-25T06:27:55Z,42.805,6.029,13.2991,4.60003,2470.46,2021-6-25T08:29:09Z
2021-06-25T06:30:58Z,42.805,6.029,13.2991,4.60004,2470.507,2021-6-25T08:32:12Z
2021-06-25T06:34:01Z,42.805,6.029,13.2998,4.60001,2470.483,2021-6-25T08:35:15Z
2021-06-25T06:37:04Z,42.805,6.029,13.2990,4.60001,2470.497,2021-6-25T08:38:19Z
2021-06-25T06:40:07Z,42.805,6.029,13.2990,4.60005,2470.497,2021-6-25T08:41:22Z
2021-06-25T06:43:11Z,42.805,6.029,13.2991,4.60003,2470.46,2021-6-25T08:44:25Z
2021-06-25T06:46:14Z,42.805,6.029,13.2990,4.60002,2470.474,2021-6-25T08:47:28Z
2021-06-25T06:49:17Z,42.805,6.029,13.2990,4.60004,2470.483,2021-6-25T08:50:31Z
2021-06-25T06:52:20Z,42.805,6.029,13.2990,4.60002,2470.46,2021-6-25T08:53:34Z
2021-06-25T06:55:23Z,42.805,6.029,13.2990,4.60004,2470.497,2021-6-25T08:56:37Z
2021-06-25T06:58:26Z,42.805,6.029,13.2992,4.60007,2470.497,2021-6-25T08:59:40Z
2021-06-25T07:01:29Z,42.805,6.029,13.2996,4.60006,2470.497,2021-6-25T09:02:44Z
2021-06-25T07:04:32Z,42.805,6.029,13.3000,4.60009,2470.46,2021-6-25T09:05:47Z
2021-06-25T07:07:36Z,42.805,6.029,13.3000,4.60007,2470.497,2021-6-25T09:08:50Z
2021-06-25T07:10:39Z,42.805,6.029,13.3009,4.60009,2470.52,2021-6-25T09:11:53Z
2021-06-25T07:13:42Z,42.805,6.029,13.3005,4.60010,2470.483,2021-6-25T09:14:56Z
2021-06-25T07:16:45Z,42.805,6.029,13.2991,4.60005,2470.474,2021-6-25T09:17:59Z
2021-06-25T07:19:48Z,42.805,6.029,13.2991,4.60005,2470.497,2021-6-25T09:21:02Z
2021-06-25T07:22:51Z,42.805,6.029,13.2997,4.60003,2470.507,2021-6-25T09:24:05Z
2021-06-25T07:25:54Z,42.805,6.029,13.3000,4.60002,2470.52,2021-6-25T09:27:09Z
2021-06-25T07:28:57Z,42.805,6.029,13.2998,4.60005,2470.46,2021-6-25T09:30:12Z
2021-06-25T07:32:01Z,42.805,6.029,13.2998,4.60008,2470.52,2021-6-25T09:33:15Z
2021-06-25T07:35:04Z,42.805,6.029,13.2998,4.60001,2470.474,2021-6-25T09:36:18Z
2021-06-25T07:38:07Z,42.805,6.029,13.2998,4.60003,2470.474,2021-6-25T09:39:21Z
2021-06-25T07:41:10Z,42.805,6.029,13.2998,4.60002,2470.483,2021-6-25T09:42:24Z
2021-06-25T07:44:13Z,42.805,6.029,13.2991,4.60003,2470.497,2021-6-25T09:45:27Z
2021-06-25T07:47:16Z,42.805,6.029,13.2994,4.60003,2470.483,2021-6-25T09:48:30Z
2021-06-25T07:50:19Z,42.805,6.029,13.2996,4.60002,2470.46,2021-6-25T09:51:34Z
2021-06-25T07:53:22Z,42.805,6.029,13.2999,4.60003,2470.497,2021-6-25T09:54:37Z
2021-06-25T07:56:25Z,42.805,6.029,13.2997,4.60006,2470.483,2021-6-25T09:57:40Z
2021-06-25T07:59:29Z,42.805,6.029,13.2994,4.60005,2470.474,2021-6-25T10:00:43Z
2021-06-25T08:02:32Z,42.805,6.029,13.2998,4.60003,2470.45,2021-6-25T10:03:46Z
2021-06-25T08:05:35Z,42.805,6.029,13.2996,4.60003,2470.497,2021-6-25T10:06:49Z
2021-06-25T08:08:38Z,42.805,6.029,13.2994,4.60004,2470.46,2021-6-25T10:09:52Z
2021-06-25T08:11:41Z,42.805,6.029,13.2991,4.60005,2470.437,2021-6-25T10:12:55Z
2021-06-25T08:14:44Z,42.805,6.029,13.2994,4.60002,2470.474,2021-6-25T10:15:59Z
2021-06-25T08:17:47Z,42.805,6.029,13.2991,4.60010,2470.45,2021-6-25T10:19:02Z
2021-06-25T08:20:51Z,42.805,6.029,13.2992,4.60005,2470.474,2021-6-25T10:22:05Z
2021-06-25T08:23:54Z,42.805,6.029,13.2986,4.60002,2470.437,2021-6-25T10:25:08Z
2021-06-25T08:26:57Z,42.805,6.029,13.2996,4.60003,2470.437,2021-6-25T10:28:11Z
2021-06-25T08:30:00Z,42.805,6.029,13.2992,4.60001,2470.497,2021-6-25T10:31:14Z
2021-06-25T08:33:03Z,42.805,6.029,13.2991,4.60002,2470.437,2021-6-25T10:34:17Z
2021-06-25T08:36:06Z,42.805,6.029,13.2992,4.60003,2470.45,2021-6-25T10:37:20Z
2021-06-25T08:39:09Z,42.805,6.029,13.2993,4.60002,2470.413,2021-6-25T10:40:24Z
2021-06-25T08:42:12Z,42.805,6.029,13.2991,4.60005,2470.46,2021-6-25T10:43:27Z
2021-06-25T08:45:16Z,42.805,6.029,13.2989,4.60006,2470.413,2021-6-25T10:46:30Z
2021-06-25T08:48:19Z,42.805,6.029,13.2991,4.60004,2470.46,2021-6-25T10:49:33Z
2021-06-25T08:51:22Z,42.805,6.029,13.2992,4.60009,2470.413,2021-6-25T10:52:36Z
2021-06-25T08:54:25Z,42.805,6.029,13.2993,4.60005,2470.437,2021-6-25T10:55:39Z
2021-06-25T08:57:28Z,42.805,6.029,13.2991,4.60004,2470.45,2021-6-25T10:58:42Z
2021-06-25T09:00:31Z,42.805,6.029,13.2994,4.60010,2470.413,2021-6-25T11:01:45Z
2021-06-25T09:03:34Z,42.805,6.029,13.2997,4.60009,2470.427,2021-6-25T11:04:49Z
2021-06-25T09:06:37Z,42.805,6.029,13.2995,4.60006,2470.413,2021-6-25T11:07:52Z
2021-06-25T09:09:41Z,42.805,6.029,13.2990,4.60019,2470.437,2021-6-25T11:10:55Z
2021-06-25T09:12:44Z,42.805,6.029,13.2996,4.60011,2470.45,2021-6-25T11:13:58Z
2021-06-25T09:15:47Z,42.805,6.029,13.2994,4.60014,2470.427,2021-6-25T11:17:01Z
2021-06-25T09:18:50Z,42.805,6.029,13.2993,4.60003,2470.413,2021-6-25T11:20:04Z
2021-06-25T09:21:53Z,42.805,6.029,13.2991,4.60015,2470.427,2021-6-25T11:23:07Z
2021-06-25T09:24:56Z,42.805,6.029,13.2988,4.60014,2470.437,2021-6-25T11:26:11Z
2021-06-25T09:27:59Z,42.805,6.029,13.2992,4.60000,2470.413,2021-6-25T11:29:14Z
2021-06-25T09:31:02Z,42.805,6.029,13.2997,4.60005,2470.427,2021-6-25T11:32:17Z
2021-06-25T09:34:06Z,42.805,6.029,13.2998,4.60000,2470.404,2021-6-25T11:35:20Z
2021-06-25T09:37:09Z,42.805,6.029,13.2992,4.60002,2470.437,2021-6-25T11:38:23Z
2021-06-25T09:40:12Z,42.805,6.029,13.2996,4.60010,2470.357,2021-6-25T11:41:26Z
2021-06-25T09:43:15Z,42.805,6.029,13.2997,4.60001,2470.404,2021-6-25T11:44:29Z
2021-06-25T09:46:18Z,42.805,6.029,13.2995,4.60003,2470.39,2021-6-25T11:47:32Z
2021-06-25T09:49:21Z,42.805,6.029,13.2994,4.60010,2470.38,2021-6-25T11:50:36Z
2021-06-25T09:52:24Z,42.805,6.029,13.2993,4.60002,2470.413,2021-6-25T11:53:39Z
2021-06-25T09:55:27Z,42.805,6.029,13.2994,4.60004,2470.39,2021-6-25T11:56:42Z
2021-06-25T09:58:31Z,42.805,6.029,13.2997,4.59999,2470.427,2021-6-25T11:59:45Z
2021-06-25T10:01:34Z,42.805,6.029,13.2992,4.60000,2470.366,2021-6-25T12:02:48Z
2021-06-25T10:04:37Z,42.805,6.029,13.2992,4.60001,2470.366,2021-6-25T12:05:51Z
2021-06-25T10:07:40Z,42.805,6.029,13.2997,4.60024,2470.39,2021-6-25T12:08:54Z
2021-06-25T10:10:43Z,42.805,6.029,13.2993,4.60002,2470.404,2021-6-25T12:11:57Z
2021-06-25T10:13:46Z,42.805,6.029,13.3000,4.60001,2470.39,2021-6-25T12:15:01Z
2021-06-25T10:16:49Z,42.805,6.029,13.2998,4.60005,2470.38,2021-6-25T12:18:04Z
2021-06-25T10:19:52Z,42.805,6.029,13.2995,4.60012,2470.39,2021-6-25T12:21:07Z
2021-06-25T10:22:56Z,42.805,6.029,13.2995,4.59999,2470.357,2021-6-25T12:24:10Z
2021-06-25T10:25:59Z,42.805,6.029,13.2998,4.59999,2470.38,2021-6-25T12:27:13Z
2021-06-25T10:29:02Z,42.805,6.029,13.2998,4.60004,2470.366,2021-6-25T12:30:16Z
2021-06-25T10:32:05Z,42.805,6.029,13.2999,4.60005,2470.357,2021-6-25T12:33:19Z
2021-06-25T10:35:08Z,42.805,6.029,13.2998,4.60000,2470.366,2021-6-25T12:36:22Z
2021-06-25T10:38:11Z,42.805,6.029,13.2991,4.59999,2470.38,2021-6-25T12:39:26Z
2021-06-25T10:41:14Z,42.805,6.029,13.2991,4.60000,2470.357,2021-6-25T12:42:29Z
2021-06-25T10:44:17Z,42.805,6.029,13.2993,4.60003,2470.39,2021-6-25T12:45:32Z
2021-06-25T10:47:21Z,42.805,6.029,13.2989,4.60000,2470.39,2021-6-25T12:48:35Z
2021-06-25T10:50:24Z,42.805,6.029,13.2991,4.60010,2470.343,2021-6-25T12:51:38Z
2021-06-25T10:53:27Z,42.805,6.029,13.2991,4.60011,2470.32,2021-6-25T12:54:41Z
2021-06-25T10:56:30Z,42.805,6.029,13.2997,4.60009,2470.366,2021-6-25T12:57:44Z
2021-06-25T10:59:33Z,42.805,6.029,13.2997,4.59998,2470.357,2021-6-25T13:00:47Z
2021-06-25T11:02:36Z,42.805,6.029,13.2994,4.59999,2470.343,2021-6-25T13:03:51Z
2021-06-25T11:05:39Z,42.805,6.029,13.2997,4.60000,2470.334,2021-6-25T13:06:54Z
2021-06-25T11:08:43Z,42.805,6.029,13.2993,4.60001,2470.343,2021-6-25T13:09:57Z
2021-06-25T11:11:46Z,42.805,6.029,13.2990,4.59999,2470.334,2021-6-25T13:13:00Z
2021-06-25T11:14:49Z,42.805,6.029,13.2989,4.59999,2470.357,2021-6-25T13:16:03Z
2021-06-25T11:17:52Z,42.805,6.029,13.2993,4.60003,2470.343,2021-6-25T13:19:06Z
2021-06-25T11:20:55Z,42.805,6.029,13.2992,4.60004,2470.31,2021-6-25T13:22:09Z
2021-06-25T11:23:58Z,42.805,6.029,13.2990,4.60002,2470.32,2021-6-25T13:25:12Z
2021-06-25T11:27:01Z,42.805,6.029,13.2989,4.59999,2470.343,2021-6-25T13:28:16Z
2021-06-25T11:30:04Z,42.805,6.029,13.2986,4.60011,2470.334,2021-6-25T13:31:19Z
2021-06-25T11:33:08Z,42.805,6.029,13.2994,4.60004,2470.334,2021-6-25T13:34:22Z
2021-06-25T11:36:11Z,42.805,6.029,13.2992,4.60000,2470.32,2021-6-25T13:37:25Z
2021-06-25T11:39:14Z,42.805,6.029,13.2990,4.60003,2470.32,2021-6-25T13:40:28Z
2021-06-25T11:42:17Z,42.805,6.029,13.2988,4.60003,2470.32,2021-6-25T13:43:31Z
2021-06-25T11:45:20Z,42.805,6.029,13.2986,4.59999,2470.297,2021-6-25T13:46:34Z
2021-06-25T11:48:23Z,42.805,6.029,13.2993,4.60006,2470.297,2021-6-25T13:49:38Z
2021-06-25T11:51:26Z,42.805,6.029,13.2993,4.60009,2470.334,2021-6-25T13:52:41Z
2021-06-25T11:54:29Z,42.805,6.029,13.2993,4.60011,2470.297,2021-6-25T13:55:44Z
2021-06-25T11:57:33Z,42.805,6.029,13.2994,4.60002,2470.31,2021-6-25T13:58:47Z
2021-06-25T12:00:36Z,42.805,6.029,13.2992,4.60010,2470.273,2021-6-25T14:01:50Z
2021-06-25T12:03:39Z,42.805,6.029,13.2996,4.60003,2470.31,2021-6-25T14:04:53Z
2021-06-25T12:06:42Z,42.805,6.029,13.2993,4.60007,2470.32,2021-6-25T14:07:56Z
2021-06-25T12:09:45Z,42.805,6.029,13.2991,4.60003,2470.31,2021-6-25T14:10:59Z
2021-06-25T12:12:48Z,42.805,6.029,13.2991,4.60009,2470.297,2021-6-25T14:14:03Z
2021-06-25T12:15:51Z,42.805,6.029,13.2990,4.60003,2470.273,2021-6-25T14:17:06Z
2021-06-25T12:18:54Z,42.805,6.029,13.2991,4.59999,2470.297,2021-6-25T14:20:09Z
2021-06-25T12:21:58Z,42.805,6.029,13.2988,4.59999,2470.297,2021-6-25T14:23:12Z
2021-06-25T12:25:01Z,42.805,6.029,13.2993,4.59999,2470.273,2021-6-25T14:26:15Z
2021-06-25T12:28:04Z,42.805,6.029,13.2989,4.59999,2470.273,2021-6-25T14:29:18Z
2021-06-25T12:31:07Z,42.805,6.029,13.2995,4.59999,2470.31,2021-6-25T14:32:21Z
2021-06-25T12:34:10Z,42.805,6.029,13.2989,4.59999,2470.287,2021-6-25T14:35:24Z
2021-06-25T12:37:13Z,42.805,6.029,13.2996,4.59999,2470.287,2021-6-25T14:38:28Z
2021-06-25T12:40:16Z,42.805,6.029,13.2995,4.60006,2470.264,2021-6-25T14:41:31Z
2021-06-25T12:43:20Z,42.805,6.029,13.2990,4.59999,2470.287,2021-6-25T14:44:34Z
2021-06-25T12:46:23Z,42.805,6.029,13.2988,4.59998,2470.273,2021-6-25T14:47:37Z
2021-06-25T12:49:26Z,42.805,6.029,13.2993,4.59999,2470.287,2021-6-25T14:50:40Z
2021-06-25T12:52:29Z,42.805,6.029,13.2991,4.60000,2470.273,2021-6-25T14:53:43Z
2021-06-25T12:55:32Z,42.805,6.029,13.2990,4.59999,2470.264,2021-6-25T14:56:46Z
2021-06-25T12:58:35Z,42.805,6.029,13.3004,4.60001,2470.287,2021-6-25T14:59:50Z
2021-06-25T13:01:38Z,42.805,6.029,13.2992,4.60007,2470.264,2021-6-25T15:02:53Z
2021-06-25T13:04:41Z,42.805,6.029,13.2995,4.60002,2470.297,2021-6-25T15:05:56Z
2021-06-25T13:07:45Z,42.805,6.029,13.2997,4.60000,2470.297,2021-6-25T15:08:59Z
2021-06-25T13:10:48Z,42.805,6.029,13.2991,4.60006,2470.287,2021-6-25T15:12:02Z
2021-06-25T13:13:51Z,42.805,6.029,13.2995,4.59999,2470.287,2021-6-25T15:15:05Z
2021-06-25T13:16:54Z,42.805,6.029,13.2989,4.60003,2470.264,2021-6-25T15:18:08Z
2021-06-25T13:19:57Z,42.805,6.029,13.2993,4.60003,2470.25,2021-6-25T15:21:11Z
2021-06-25T13:23:00Z,42.805,6.029,13.2990,4.60001,2470.264,2021-6-25T15:24:15Z
2021-06-25T13:26:03Z,42.805,6.029,13.2990,4.60000,2470.273,2021-6-25T15:27:18Z
2021-06-25T13:29:06Z,42.805,6.029,13.2991,4.60004,2470.264,2021-6-25T15:30:21Z
2021-06-25T13:32:10Z,42.805,6.029,13.2994,4.59999,2470.273,2021-6-25T15:33:24Z
2021-06-25T13:35:13Z,42.805,6.029,13.2996,4.60002,2470.25,2021-6-25T15:36:27Z
2021-06-25T13:38:16Z,42.805,6.029,13.2996,4.60004,2470.25,2021-6-25T15:39:30Z
2021-06-25T13:41:19Z,42.805,6.029,13.2991,4.60005,2470.217,2021-6-25T15:42:33Z
2021-06-25T13:44:22Z,42.805,6.029,13.2993,4.60003,2470.25,2021-6-25T15:45:36Z
2021-06-25T13:47:25Z,42.805,6.029,13.2996,4.60006,2470.227,2021-6-25T15:48:40Z
2021-06-25T13:50:28Z,42.805,6.029,13.2993,4.59999,2470.227,2021-6-25T15:51:43Z
2021-06-25T13:53:31Z,42.805,6.029,13.2991,4.59999,2470.273,2021-6-25T15:54:46Z
2021-06-25T13:56:35Z,42.805,6.029,13.2989,4.59998,2470.227,2021-6-25T15:57:49Z
2021-06-25T13:59:38Z,42.805,6.029,13.2991,4.60004,2470.227,2021-6-25T16:00:52Z
2021-06-25T14:02:41Z,42.805,6.029,13.2998,4.60003,2470.25,2021-6-25T16:03:55Z
2021-06-25T14:05:44Z,42.805,6.029,13.2994,4.60001,2470.227,2021-6-25T16:06:58Z
2021-06-25T14:08:47Z,42.805,6.029,13.2986,4.60001,2470.227,2021-6-25T16:10:01Z
2021-06-25T14:11:50Z,42.805,6.029,13.2993,4.59997,2470.203,2021-6-25T16:13:05Z
2021-06-25T14:14:53Z,42.805,6.029,13.2991,4.59999,2470.25,2021-6-25T16:16:08Z
2021-06-25T14:17:56Z,42.805,6.029,13.2988,4.59997,2470.273,2021-6-25T16:19:11Z
2021-06-25T14:21:00Z,42.805,6.029,13.2989,4.59997,2470.273,2021-6-25T16:22:14Z
2021-06-25T14:24:03Z,42.805,6.029,13.2994,4.59997,2470.25,2021-6-25T16:25:17Z
2021-06-25T14:27:06Z,42.805,6.029,13.2993,4.59997,2470.227,2021-6-25T16:28:20Z
2021-06-25T14:30:09Z,42.805,6.029,13.3000,4.59999,2470.25,2021-6-25T16:31:23Z
2021-06-25T14:33:12Z,42.805,6.029,13.2991,4.60010,2470.273,2021-6-25T16:34:26Z
2021-06-25T14:36:15Z,42.805,6.029,13.2992,4.59999,2470.264,2021-6-25T16:37:30Z
2021-06-25T14:39:18Z,42.805,6.029,13.2986,4.60014,2470.264,2021-6-25T16:40:33Z
2021-06-25T14:42:21Z,42.805,6.029,13.2995,4.59998,2470.273,2021-6-25T16:43:36Z
2021-06-25T14:45:25Z,42.805,6.029,13.2991,4.60000,2470.24,2021-6-25T16:46:39Z
2021-06-25T14:48:28Z,42.805,6.029,13.2990,4.60000,2470.25,2021-6-25T16:49:42Z
2021-06-25T14:51:31Z,42.805,6.029,13.2992,4.59999,2470.273,2021-6-25T16:52:45Z
2021-06-25T14:54:34Z,42.805,6.029,13.2996,4.60014,2470.25,2021-6-25T16:55:48Z
2021-06-25T14:57:37Z,42.805,6.029,13.2994,4.60011,2470.25,2021-6-25T16:58:51Z
2021-06-25T15:00:40Z,42.805,6.029,13.2992,4.60000,2470.264,2021-6-25T17:01:55Z
2021-06-25T15:03:43Z,42.805,6.029,13.2996,4.59998,2470.25,2021-6-25T17:04:58Z
2021-06-25T15:06:47Z,42.805,6.029,13.2991,4.60002,2470.273,2021-6-25T17:08:01Z
2021-06-25T15:09:50Z,42.805,6.029,13.2996,4.60009,2470.287,2021-6-25T17:11:04Z
2021-06-25T15:12:53Z,42.805,6.029,13.2993,4.60001,2470.273,2021-6-25T17:14:07Z